Time,TemperatureF,DewpointF,PressureIn,WindDirection,WindDirectionDegrees,WindSpeedMPH,WindSpeedGustMPH,Humidity,HourlyPrecipIn,Conditions,Clouds,dailyrainin,SoftwareType,DateUTC
2013-01-29 00:01:00,60.0,58.0,29.65,SE,132,3.0,9.0,94,0.00,,,0.00,,2013-01-29 06:01:00,
2013-01-29 00:11:00,60.0,58.0,29.65,SE,132,3.0,9.0,94,0.00,,,0.00,,2013-01-29 06:11:00,
2013-01-29 00:21:00,60.0,58.0,29.64,ESE,120,3.0,13.0,93,0.00,,,0.00,,2013-01-29 06:21:00,
2013-01-29 00:32:00,60.0,58.0,29.64,SE,133,5.0,9.0,93,0.00,,,0.00,,2013-01-29 06:32:00,
2013-01-29 00:42:00,60.0,58.0,29.64,SE,133,5.0,9.0,93,0.00,,,0.00,,2013-01-29 06:42:00,
2013-01-29 00:52:00,60.0,58.0,29.63,SSE,147,3.0,11.0,93,0.00,,,0.00,,2013-01-29 06:52:00,
2013-01-29 01:01:00,59.0,57.0,29.63,SE,126,5.0,11.0,93,0.00,,,0.00,,2013-01-29 07:01:00,
2013-01-29 01:11:00,59.0,57.0,29.63,SE,126,5.0,11.0,93,0.00,,,0.00,,2013-01-29 07:11:00,
2013-01-29 01:21:00,59.0,57.0,29.62,ESE,115,4.0,9.0,93,0.00,,,0.00,,2013-01-29 07:21:00,
2013-01-29 01:31:00,59.0,57.0,29.62,SE,130,5.0,12.0,93,0.00,,,0.00,,2013-01-29 07:31:00,
2013-01-29 01:41:00,59.0,57.0,29.62,SE,130,5.0,12.0,93,0.00,,,0.00,,2013-01-29 07:41:00,
2013-01-29 01:52:00,59.0,57.0,29.61,SE,134,4.0,15.0,93,0.00,,,0.00,,2013-01-29 07:52:00,
2013-01-29 02:02:00,59.0,57.0,29.61,SE,130,4.0,13.0,93,0.00,,,0.00,,2013-01-29 08:02:00,
2013-01-29 02:11:00,59.0,57.0,29.61,SE,130,4.0,13.0,93,0.00,,,0.00,,2013-01-29 08:11:00,
2013-01-29 02:21:00,60.0,58.0,29.60,ESE,119,4.0,14.0,93,0.00,,,0.00,,2013-01-29 08:21:00,
2013-01-29 02:31:00,60.0,58.0,29.59,ESE,123,4.0,12.0,92,0.00,,,0.00,,2013-01-29 08:31:00,
2013-01-29 02:41:00,60.0,58.0,29.59,ESE,123,4.0,12.0,92,0.00,,,0.00,,2013-01-29 08:41:00,
2013-01-29 02:52:00,60.0,58.0,29.59,ESE,123,4.0,12.0,92,0.00,,,0.00,,2013-01-29 08:52:00,
2013-01-29 03:01:00,60.0,58.0,29.59,SE,134,2.0,11.0,92,0.00,,,0.00,,2013-01-29 09:01:00,
2013-01-29 03:11:00,60.0,58.0,29.59,SE,134,2.0,11.0,92,0.00,,,0.00,,2013-01-29 09:11:00,
2013-01-29 03:21:00,60.0,58.0,29.58,ENE,62,3.0,13.0,92,0.00,,,0.00,,2013-01-29 09:21:00,
2013-01-29 03:31:00,60.0,58.0,29.57,SE,145,3.0,14.0,92,0.00,,,0.00,,2013-01-29 09:31:00,
2013-01-29 03:42:00,60.0,58.0,29.57,SE,145,3.0,14.0,92,0.00,,,0.00,,2013-01-29 09:42:00,
2013-01-29 03:51:00,60.0,58.0,29.57,SE,146,3.0,16.0,92,0.00,,,0.00,,2013-01-29 09:51:00,
2013-01-29 04:01:00,60.0,57.0,29.57,SE,133,4.0,9.0,91,0.00,,,0.00,,2013-01-29 10:01:00,
2013-01-29 04:11:00,60.0,57.0,29.57,SE,133,4.0,9.0,91,0.00,,,0.00,,2013-01-29 10:11:00,
2013-01-29 04:21:00,60.0,58.0,29.57,SE,136,4.0,10.0,92,0.00,,,0.00,,2013-01-29 10:21:00,
2013-01-29 04:32:00,60.0,58.0,29.56,ESE,104,4.0,8.0,92,0.00,,,0.00,,2013-01-29 10:32:00,
2013-01-29 04:41:00,60.0,58.0,29.56,ESE,104,4.0,8.0,92,0.00,,,0.00,,2013-01-29 10:41:00,
2013-01-29 04:52:00,60.0,58.0,29.56,ESE,112,4.0,13.0,92,0.00,,,0.00,,2013-01-29 10:52:00,
2013-01-29 05:01:00,60.0,58.0,29.56,ESE,113,3.0,11.0,92,0.00,,,0.00,,2013-01-29 11:01:00,
2013-01-29 05:11:00,60.0,58.0,29.56,ESE,113,3.0,11.0,92,0.00,,,0.00,,2013-01-29 11:11:00,
2013-01-29 05:21:00,60.0,58.0,29.57,SSE,166,3.0,12.0,92,0.00,,,0.00,,2013-01-29 11:21:00,
2013-01-29 05:32:00,60.0,57.0,29.56,SE,138,5.0,12.0,91,0.00,,,0.00,,2013-01-29 11:32:00,
2013-01-29 05:42:00,60.0,57.0,29.56,SE,138,5.0,12.0,91,0.00,,,0.00,,2013-01-29 11:42:00,
2013-01-29 05:52:00,60.0,57.0,29.56,ESE,112,3.0,10.0,91,0.00,,,0.00,,2013-01-29 11:52:00,
2013-01-29 06:02:00,60.0,58.0,29.55,ESE,118,4.0,8.0,92,0.00,,,0.00,,2013-01-29 12:02:00,
2013-01-29 06:12:00,60.0,58.0,29.55,ESE,118,4.0,8.0,92,0.00,,,0.00,,2013-01-29 12:12:00,
2013-01-29 06:22:00,60.0,58.0,29.55,ESE,106,4.0,10.0,92,0.00,,,0.00,,2013-01-29 12:22:00,
2013-01-29 06:32:00,60.0,58.0,29.54,ESE,122,4.0,11.0,92,0.00,,,0.00,,2013-01-29 12:32:00,
2013-01-29 06:43:00,60.0,58.0,29.54,ESE,122,4.0,11.0,92,0.00,,,0.00,,2013-01-29 12:43:00,
2013-01-29 06:52:00,60.0,58.0,29.54,SE,130,4.0,12.0,92,0.00,,,0.00,,2013-01-29 12:52:00,
2013-01-29 07:02:00,60.0,58.0,29.55,ESE,118,4.0,10.0,92,0.00,,,0.00,,2013-01-29 13:02:00,
2013-01-29 07:12:00,60.0,58.0,29.55,ESE,118,4.0,10.0,92,0.00,,,0.00,,2013-01-29 13:12:00,
2013-01-29 07:22:00,60.0,58.0,29.54,SE,129,4.0,10.0,92,0.00,,,0.00,,2013-01-29 13:22:00,
2013-01-29 07:32:00,60.0,58.0,29.54,SE,143,4.0,9.0,92,0.00,,,0.00,,2013-01-29 13:32:00,
2013-01-29 07:42:00,60.0,58.0,29.54,SE,143,4.0,9.0,92,0.00,,,0.00,,2013-01-29 13:42:00,
2013-01-29 07:52:00,60.0,58.0,29.54,SE,146,4.0,10.0,92,0.00,,,0.00,,2013-01-29 13:52:00,
2013-01-29 08:02:00,60.0,58.0,29.54,ESE,121,4.0,12.0,92,0.00,,,0.00,,2013-01-29 14:02:00,
2013-01-29 08:12:00,61.0,58.0,29.54,SE,146,4.0,9.0,91,0.00,,,0.00,,2013-01-29 14:12:00,
2013-01-29 08:21:00,61.0,58.0,29.54,SE,146,4.0,9.0,91,0.00,,,0.00,,2013-01-29 14:21:00,
2013-01-29 08:33:00,61.0,58.0,29.53,ESE,123,3.0,11.0,91,0.00,,,0.00,,2013-01-29 14:33:00,
2013-01-29 08:43:00,61.0,58.0,29.53,ESE,123,3.0,11.0,91,0.00,,,0.00,,2013-01-29 14:43:00,
2013-01-29 08:52:00,61.0,58.0,29.52,ESE,112,4.0,10.0,91,0.00,,,0.00,,2013-01-29 14:52:00,
2013-01-29 09:02:00,61.0,58.0,29.52,SE,125,3.0,8.0,90,0.00,,,0.00,,2013-01-29 15:02:00,
2013-01-29 09:12:00,61.0,58.0,29.52,SE,125,3.0,8.0,90,0.00,,,0.00,,2013-01-29 15:12:00,
2013-01-29 09:22:00,61.0,58.0,29.52,ESE,121,4.0,9.0,90,0.00,,,0.00,,2013-01-29 15:22:00,
2013-01-29 09:33:00,61.0,58.0,29.52,ESE,111,2.0,13.0,90,0.00,,,0.00,,2013-01-29 15:33:00,
2013-01-29 09:43:00,61.0,58.0,29.52,ESE,111,2.0,13.0,90,0.00,,,0.00,,2013-01-29 15:43:00,
2013-01-29 09:53:00,61.0,58.0,29.52,SE,132,3.0,11.0,89,0.00,,,0.00,,2013-01-29 15:53:00,
2013-01-29 10:02:00,62.0,59.0,29.51,SE,133,4.0,12.0,89,0.00,,,0.00,,2013-01-29 16:02:00,
2013-01-29 10:12:00,62.0,59.0,29.51,SE,133,4.0,12.0,89,0.00,,,0.00,,2013-01-29 16:12:00,
2013-01-29 10:22:00,62.0,58.0,29.52,South,171,6.0,12.0,88,0.00,,,0.00,,2013-01-29 16:22:00,
2013-01-29 10:32:00,62.0,58.0,29.51,SE,131,4.0,11.0,87,0.00,,,0.00,,2013-01-29 16:32:00,
2013-01-29 10:42:00,62.0,58.0,29.51,SE,131,4.0,11.0,87,0.00,,,0.00,,2013-01-29 16:42:00,
2013-01-29 10:53:00,63.0,58.0,29.51,SE,136,7.0,12.0,85,0.00,,,0.00,,2013-01-29 16:53:00,
2013-01-29 11:03:00,63.0,58.0,29.50,ESE,107,7.0,12.0,84,0.00,,,0.00,,2013-01-29 17:03:00,
2013-01-29 11:12:00,63.0,58.0,29.50,ESE,107,7.0,12.0,84,0.00,,,0.00,,2013-01-29 17:12:00,
2013-01-29 11:21:00,63.0,58.0,29.48,SE,131,4.0,12.0,85,0.00,,,0.00,,2013-01-29 17:21:00,
2013-01-29 11:32:00,62.0,57.0,29.48,ESE,122,4.0,12.0,85,0.00,,,0.00,,2013-01-29 17:32:00,
2013-01-29 11:42:00,62.0,57.0,29.48,ESE,122,4.0,12.0,85,0.00,,,0.00,,2013-01-29 17:42:00,
2013-01-29 11:52:00,62.0,58.0,29.47,ESE,114,7.0,14.0,86,0.00,,,0.00,,2013-01-29 17:52:00,
2013-01-29 12:03:00,62.0,58.0,29.46,SE,131,7.0,20.0,86,0.00,,,0.00,,2013-01-29 18:03:00,
2013-01-29 12:12:00,62.0,58.0,29.46,SE,131,7.0,20.0,86,0.00,,,0.00,,2013-01-29 18:12:00,
2013-01-29 12:22:00,62.0,58.0,29.46,NE,37,4.0,14.0,86,0.00,,,0.00,,2013-01-29 18:22:00,
2013-01-29 12:33:00,63.0,58.0,29.44,SE,133,10.0,16.0,85,0.00,,,0.00,,2013-01-29 18:33:00,
2013-01-29 12:42:00,63.0,58.0,29.44,SE,133,10.0,16.0,85,0.00,,,0.00,,2013-01-29 18:42:00,
2013-01-29 12:51:00,63.0,58.0,29.43,SE,133,6.0,13.0,85,0.00,,,0.00,,2013-01-29 18:51:00,
2013-01-29 13:02:00,63.0,58.0,29.42,ESE,122,8.0,13.0,85,0.00,,,0.00,,2013-01-29 19:02:00,
2013-01-29 13:12:00,63.0,58.0,29.42,ESE,122,8.0,13.0,85,0.00,,,0.00,,2013-01-29 19:12:00,
2013-01-29 13:22:00,63.0,58.0,29.42,SE,128,6.0,13.0,84,0.00,,,0.00,,2013-01-29 19:22:00,
2013-01-29 13:32:00,63.0,58.0,29.40,ESE,113,2.0,11.0,85,0.00,,,0.00,,2013-01-29 19:32:00,
2013-01-29 13:42:00,63.0,58.0,29.40,ESE,113,2.0,11.0,85,0.00,,,0.00,,2013-01-29 19:42:00,
2013-01-29 13:52:00,62.0,58.0,29.39,SE,140,4.0,11.0,86,0.00,,,0.00,,2013-01-29 19:52:00,
2013-01-29 14:02:00,62.0,57.0,29.38,SE,129,5.0,15.0,85,0.00,,,0.00,,2013-01-29 20:02:00,
2013-01-29 14:12:00,62.0,57.0,29.38,SE,129,5.0,15.0,85,0.00,,,0.00,,2013-01-29 20:12:00,
2013-01-29 14:22:00,62.0,58.0,29.36,SE,133,4.0,10.0,86,0.00,,,0.00,,2013-01-29 20:22:00,
2013-01-29 14:33:00,62.0,58.0,29.36,SE,130,4.0,12.0,87,0.00,,,0.00,,2013-01-29 20:33:00,
2013-01-29 14:42:00,62.0,58.0,29.36,SE,130,4.0,12.0,87,0.00,,,0.00,,2013-01-29 20:42:00,
2013-01-29 14:53:00,62.0,58.0,29.35,SE,128,2.0,12.0,88,0.00,,,0.00,,2013-01-29 20:53:00,
2013-01-29 15:03:00,61.0,58.0,29.34,SE,140,2.0,9.0,90,0.00,,,0.00,,2013-01-29 21:03:00,
2013-01-29 15:12:00,61.0,58.0,29.34,SE,140,2.0,9.0,90,0.00,,,0.00,,2013-01-29 21:12:00,
2013-01-29 15:22:00,61.0,58.0,29.33,ESE,113,2.0,4.0,91,0.00,,,0.00,,2013-01-29 21:22:00,
2013-01-29 15:33:00,62.0,59.0,29.33,ESE,103,2.0,4.0,90,0.00,,,0.00,,2013-01-29 21:33:00,
2013-01-29 15:42:00,62.0,59.0,29.33,ESE,103,2.0,4.0,90,0.00,,,0.00,,2013-01-29 21:42:00,
2013-01-29 15:53:00,62.0,58.0,29.32,East,97,2.0,10.0,87,0.00,,,0.00,,2013-01-29 21:53:00,
2013-01-29 16:02:00,63.0,59.0,29.31,East,82,2.0,9.0,86,0.00,,,0.00,,2013-01-29 22:02:00,
2013-01-29 16:12:00,63.0,59.0,29.31,East,82,2.0,9.0,86,0.00,,,0.00,,2013-01-29 22:12:00,
2013-01-29 16:22:00,63.0,58.0,29.30,SE,131,2.0,7.0,85,0.00,,,0.00,,2013-01-29 22:22:00,
2013-01-29 16:33:00,64.0,59.0,29.29,East,96,3.0,11.0,84,0.00,,,0.00,,2013-01-29 22:33:00,
2013-01-29 16:42:00,64.0,59.0,29.29,East,96,3.0,11.0,84,0.00,,,0.00,,2013-01-29 22:42:00,
2013-01-29 16:52:00,64.0,59.0,29.29,East,88,2.0,11.0,83,0.00,,,0.00,,2013-01-29 22:52:00,
2013-01-29 17:02:00,64.0,58.0,29.27,SE,130,3.0,11.0,81,0.00,,,0.00,,2013-01-29 23:02:00,
2013-01-29 17:12:00,64.0,58.0,29.27,SE,130,3.0,11.0,81,0.00,,,0.00,,2013-01-29 23:12:00,
2013-01-29 17:22:00,64.0,58.0,29.26,ESE,113,2.0,11.0,80,0.00,,,0.00,,2013-01-29 23:22:00,
2013-01-29 17:33:00,65.0,58.0,29.26,NE,52,3.0,12.0,78,0.00,,,0.00,,2013-01-29 23:33:00,
2013-01-29 17:42:00,65.0,58.0,29.26,NE,52,3.0,12.0,78,0.00,,,0.00,,2013-01-29 23:42:00,
2013-01-29 17:52:00,65.0,58.0,29.25,East,99,2.0,9.0,78,0.00,,,0.00,,2013-01-29 23:52:00,
2013-01-29 18:02:00,65.0,58.0,29.24,East,83,2.0,12.0,77,0.00,,,0.00,,2013-01-30 00:02:00,
2013-01-29 18:12:00,65.0,58.0,29.24,East,83,2.0,12.0,77,0.00,,,0.00,,2013-01-30 00:12:00,
2013-01-29 18:22:00,65.0,57.0,29.23,East,93,3.0,11.0,76,0.00,,,0.00,,2013-01-30 00:22:00,
2013-01-29 18:32:00,65.0,57.0,29.23,ESE,118,3.0,11.0,76,0.00,,,0.00,,2013-01-30 00:32:00,
2013-01-29 18:42:00,65.0,57.0,29.23,ESE,118,3.0,11.0,76,0.00,,,0.00,,2013-01-30 00:42:00,
2013-01-29 18:52:00,64.0,57.0,29.23,SE,125,2.0,10.0,78,0.00,,,0.00,,2013-01-30 00:52:00,
2013-01-29 19:02:00,60.0,57.0,29.28,SSW,196,5.0,11.0,90,0.00,,,0.00,,2013-01-30 01:02:00,
2013-01-29 19:12:00,60.0,57.0,29.28,SSW,196,5.0,11.0,90,0.00,,,0.00,,2013-01-30 01:12:00,
2013-01-29 19:22:00,57.0,54.0,29.30,WSW,253,7.0,14.0,91,0.00,,,0.00,,2013-01-30 01:22:00,
2013-01-29 19:32:00,56.0,54.0,29.30,West,278,7.0,17.0,94,0.00,,,0.00,,2013-01-30 01:32:00,
2013-01-29 19:42:00,56.0,54.0,29.30,West,278,7.0,17.0,94,0.00,,,0.00,,2013-01-30 01:42:00,
2013-01-29 19:52:00,55.0,54.0,29.30,WNW,288,4.0,14.0,95,0.00,,,0.00,,2013-01-30 01:52:00,
2013-01-29 20:02:00,55.0,54.0,29.24,North,353,2.0,4.0,95,0.00,,,0.00,,2013-01-30 02:02:00,
2013-01-29 20:12:00,55.0,54.0,29.24,North,353,2.0,4.0,95,0.00,,,0.00,,2013-01-30 02:12:00,
2013-01-29 20:22:00,54.0,53.0,29.22,WSW,237,1.0,4.0,96,0.00,,,0.00,,2013-01-30 02:22:00,
2013-01-29 20:33:00,54.0,53.0,29.23,West,281,3.0,7.0,96,0.00,,,0.00,,2013-01-30 02:33:00,
2013-01-29 20:42:00,54.0,53.0,29.23,West,281,3.0,7.0,96,0.00,,,0.00,,2013-01-30 02:42:00,
2013-01-29 20:53:00,54.0,53.0,29.24,WNW,297,7.0,13.0,97,0.00,,,0.00,,2013-01-30 02:53:00,
2013-01-29 21:03:00,54.0,53.0,29.25,WNW,283,6.0,11.0,97,0.00,,,0.00,,2013-01-30 03:03:00,
2013-01-29 21:11:00,54.0,53.0,29.25,WNW,283,6.0,11.0,97,0.00,,,0.00,,2013-01-30 03:11:00,
2013-01-29 21:22:00,54.0,53.0,29.24,West,280,8.0,11.0,97,0.00,,,0.00,,2013-01-30 03:22:00,
2013-01-29 21:32:00,53.0,52.0,29.27,WNW,288,4.0,14.0,97,0.00,,,0.00,,2013-01-30 03:32:00,
2013-01-29 21:42:00,53.0,52.0,29.27,WNW,288,4.0,14.0,97,0.00,,,0.00,,2013-01-30 03:42:00,
2013-01-29 21:51:00,53.0,52.0,29.27,West,278,4.0,8.0,98,0.00,,,0.00,,2013-01-30 03:51:00,
2013-01-29 22:02:00,53.0,52.0,29.28,West,277,4.0,7.0,98,0.00,,,0.00,,2013-01-30 04:02:00,
2013-01-29 22:11:00,53.0,52.0,29.28,West,277,4.0,7.0,98,0.00,,,0.00,,2013-01-30 04:11:00,
2013-01-29 22:22:00,53.0,52.0,29.28,West,270,4.0,8.0,98,0.00,,,0.00,,2013-01-30 04:22:00,
2013-01-29 22:32:00,53.0,52.0,29.26,West,277,3.0,7.0,98,0.00,,,0.00,,2013-01-30 04:32:00,
2013-01-29 22:41:00,53.0,52.0,29.26,West,277,3.0,7.0,98,0.00,,,0.00,,2013-01-30 04:41:00,
2013-01-29 22:52:00,53.0,52.0,29.25,WNW,282,3.0,5.0,98,0.00,,,0.00,,2013-01-30 04:52:00,
2013-01-29 23:03:00,53.0,52.0,29.26,WNW,291,1.0,5.0,98,0.00,,,0.00,,2013-01-30 05:03:00,
2013-01-29 23:12:00,53.0,52.0,29.26,WNW,291,1.0,5.0,98,0.00,,,0.00,,2013-01-30 05:12:00,
2013-01-29 23:22:00,53.0,52.0,29.26,West,271,1.0,4.0,98,0.00,,,0.00,,2013-01-30 05:22:00,
2013-01-29 23:32:00,53.0,52.0,29.23,NE,43,0.0,1.0,98,0.00,,,0.00,,2013-01-30 05:32:00,
2013-01-29 23:43:00,53.0,52.0,29.23,NE,43,0.0,1.0,98,0.00,,,0.00,,2013-01-30 05:43:00,
2013-01-29 23:52:00,53.0,52.0,29.24,ENE,60,0.0,2.0,98,0.00,,,0.00,,2013-01-30 05:52:00,